Regional Weather Roundup
Issued by NWS San Angelo, TX

Home | Current Version | Previous Version | Text Only | Print | Product List | Glossary On
Versions: 1 2 3 4 5 6 7 8 9 10 11 12 13 14 15 16 17 18 19 20 21 22 23 24 25 26 27 28 29 30 31 32 33 34 35 36 37 38 39 40 41 42 43 44 45 46 47 48 49 50
000
ASUS44 KSJT 310711
RWRSJT
WEST CENTRAL TEXAS REGIONAL WEATHER ROUNDUP
NATIONAL WEATHER SERVICE SAN ANGELO TX
200 AM CDT SUN JUL 31 2016

NOTE: "FAIR" INDICATES FEW OR NO CLOUDS BELOW 12,000 FEET WITH NO
SIGNIFICANT WEATHER AND/OR OBSTRUCTIONS TO VISIBILITY.

TXZ049-054-064>066-071>073-076>078-098-099-113-114-127-128-139-140-
154-155-168>170-310800
...LOCATIONS ACROSS WEST CENTRAL TEXAS...

CITY           SKY/WX    TMP DP  RH WIND       PRES   REMARKS
SAN ANGELO     CLEAR     82  63  52 S12       29.98S
ABILENE        CLEAR     82  64  54 S9        29.98S
DYESS AFB      MOCLDY    81  65  58 S8        29.96S
JUNCTION       CLEAR     80  70  71 S6        30.01F
SWEETWATER     CLEAR     81  61  49 S9        30.03R
BROWNWOOD      PTCLDY    81  64  57 S7        29.99R
COLEMAN        SUNNY     80  64  57 S6        29.99S
SONORA         CLEAR     81  66  61 SE9G15    30.06S
OZONA          FAIR      79  61  53 S8        30.04S
BRADY          NOT AVBL
$$

TEXAS PANHANDLE/OKLAHOMA PANHANDLE

CITY           SKY/WX    TMP DP  RH WIND       PRES   REMARKS
AMARILLO       CLOUDY    73  60  63 NW12      30.05R
BORGER         CLOUDY    79  60  52 SW7       30.01R
CANADIAN       CLEAR     79  60  51 SW14      29.93F
DALHART        CLOUDY    73  55  53 S10       30.03F
DUMAS          CLOUDY    71  58  64 SW10      30.02F
GUYMON         NOT AVBL
HEREFORD       PTSUNNY   76  60  56 SW13      30.06R
PAMPA          CLOUDY    74  60  59 S13       30.00F
PERRYTON       CLOUDY    76  60  58 S6        29.96F
$$

SOUTHERN PANHANDLE/SOUTH PLAINS/ROLLING PLAINS

CITY           SKY/WX    TMP DP  RH WIND       PRES   REMARKS
LUBBOCK        CLEAR     75  59  57 SE8       30.03S
SNYDER           N/A     81  61  50 S6        30.01R
CHILDRESS      CLEAR     75  64  68 SE8       29.95S
SEMINOLE       SUNNY     79  60  52 S12       30.05F
$$

PERMIAN BASIN

CITY           SKY/WX    TMP DP  RH WIND       PRES   REMARKS
MIDLAND        CLEAR     82  63  52 S12       30.02S
ODESSA         CLEAR     82  62  50 S14       30.04S
WINK           CLEAR     80  62  54 SE8       29.99S
$$

FAR WEST/SOUTHWEST MOUNTAINS/TRANS PECOS

CITY           SKY/WX    TMP DP  RH WIND       PRES   REMARKS
ALPINE         SUNNY     69  59  70 SW3       30.16F
DRYDEN           N/A     80  65  59 SE3       29.97S
EL PASO        PTCLDY    83  55  38 SE9       30.01S
FORT STOCKTON  CLEAR     78  62  57 S13       30.00F
GUADALUPE PASS CLEAR     75  56  51 S9        30.17S
MARFA          CLOUDY    67  60  78 SE5       30.15S
PECOS          SUNNY     79  61  52 SE7       29.98S
$$

DALLAS/FORT WORTH METROPLEX

CITY           SKY/WX    TMP DP  RH WIND       PRES   REMARKS
DFW AIRPORT    PTCLDY    85  68  56 S12       29.93S
FTW MEACHAM    CLEAR     86  66  51 S9        29.93S
DAL-EXECUTIVE  CLEAR     84  69  60 S9G17     29.95R
GRAND PRAIRIE  CLEAR     83  68  59 S7        29.95S
ADDISON        CLEAR     86  71  60 S6        29.96R
MESQUITE       SUNNY     80  72  77 S7        29.94F
LANCASTER      SUNNY     83  70  65 S9        29.96S
$$

NORTH CENTRAL TEXAS

CITY           SKY/WX    TMP DP  RH WIND       PRES   REMARKS
SHRMAN/DENISON SUNNY     83  71  66 S10       29.95F
GAINESVILLE    CLEAR     79  69  70 SE3       29.96S
BRIDGEPORT     SUNNY     83  66  56 S8        29.95S
DENTON         CLEAR     81  68  64 S8        29.93S
WAXAHACHIE     SUNNY     79  71  76 S8        29.97S
GRANBURY       SUNNY     85  66  52 SE7       29.96S
$$

WESTERN NORTH TEXAS

CITY           SKY/WX    TMP DP  RH WIND       PRES   REMARKS
WICHITA FALLS  CLEAR     80  65  59 S9        29.91F
VERNON         SUNNY     81  59  47 S6        29.93S
BRECKENRIDGE   SUNNY     84  64  50 S10G16    29.95S
COMANCHE       CLEAR     80  67  64 S9        29.98F
$$

CENTRAL AND SOUTH CENTRAL TEXAS

CITY           SKY/WX    TMP DP  RH WIND       PRES   REMARKS
AUSTIN/BERGSTM PTCLDY    78  75  90 S6        30.00R
WACO           CLEAR     83  72  69 S18       29.96S
HILLSBORO      SUNNY     81  71  70 S10       29.96S
TEMPLE         CLEAR     81  73  76 S16       29.98F
KILLEEN-GRAY   CLEAR     80  71  74 S12       29.99R
FORT HOOD      CLEAR     80  71  75 S10       29.97R
GEORGETOWN     CLEAR     82  72  69 S10       30.00S
LAGO VISTA     FAIR      80  73  79 S7        30.04R
SAN MARCOS     CLEAR     79  75  89 S6        30.03R
NEW BRAUNFELS  CLEAR     78  74  87 S7        29.99R
RANDOLPH AFB   CLEAR     77  75  95 S7        30.00S
SAN ANTONIO    PTCLDY    79  72  79 SE12      30.01R
STINSON        CLEAR     79  72  79 SE5       29.98R
PLEASANTON     NOT AVBL
LA GRANGE        N/A    N/A N/A N/A S3        29.98F
GIDDINGS       SUNNY     79  75  87 S7        30.04S
$$

EAST TEXAS

CITY           SKY/WX    TMP DP  RH WIND       PRES   REMARKS
PARIS          CLEAR     73  63  68 E10       29.98S
CLARKSVILLE    NOT AVBL
TYLER          CLEAR     82  71  69 S6        29.98R
LONGVIEW       PTCLDY    78  75  90 SE6       29.97S
PALESTINE      SUNNY     81  74  79 S5        29.99S
NACOGDOCHES    CLEAR    N/A N/A N/A CALM      29.98S
$$

TEXAS HILL COUNTRY AND EDWARDS PLATEAU

CITY           SKY/WX    TMP DP  RH WIND       PRES   REMARKS
LLANO          SUNNY     82  73  74 S6        30.03S
HORSESHOE BAY  FAIR      80  72  78 S8        30.01R
KERRVILLE      CLEAR     78  73  85 S7        30.04R
FREDERICKSBRG  CLEAR     77  68  74 CALM      30.04S
ROCKSPRINGS    SUNNY     79  72  78 SE13G20   30.07R
HONDO          CLEAR     79  71  76 SE9       30.01R
UVALDE         SUNNY     80  72  75 SE7       29.99R
DEL RIO        PTCLDY    85  66  53 SE9       29.94R
$$

SOUTHEAST TEXAS

CITY           SKY/WX    TMP DP  RH WIND       PRES   REMARKS
COLLEGE STN    PTCLDY    80  76  87 S8        29.99S
CALDWELL       SUNNY     79  77  94 S7        30.02F
CROCKETT       SUNNY     79  75  89 S3        30.02S
BRENHAM        PTCLDY    81  77  88 S5        30.00S
HUNTSVILLE     PTCLDY    78  74  87 S9        29.99F
CONROE         CLEAR     80  75  84 S5        29.99F
HOUSTON BUSH   PTCLDY    81  76  84 CALM      29.99S
HOUSTON HOBBY  MOCLDY    80  76  87 S3        29.99F
PERLAND        MOCLDY    82  76  81 CALM      30.01S
WHARTON        NOT AVBL
$$

THE UPPER TEXAS COAST

CITY           SKY/WX    TMP DP  RH WIND       PRES   REMARKS
ORANGE         SUNNY     76  74  93 CALM      30.01S
PORT ARTHUR    CLEAR     77  76  96 CALM      29.99S
GALVESTON      PTCLDY    84  78  82 S10       30.00F
ANGLETON       MOCLDY    80  77  90 CALM      29.99F
BAY CITY       PTSUNNY   79  77  94 CALM      30.00F
$$

TEXAS COASTAL BEND, RIO GRANDE PLAINS DEEP SOUTH TEXAS

CITY           SKY/WX    TMP DP  RH WIND       PRES   REMARKS
VICTORIA       PTCLDY    76  74  93 E3        30.00R
BEEVILLE       FAIR      79  78  99 S8        29.99R
ROCKPORT       MOCLDY    84  76  76 S9G18     29.97S
PORT ARANSAS   CLOUDY    84  79  86 S12G17    29.98S
PORT LAVACA    CLOUDY    78  77  95 CALM      29.99S
CORPUS CHRISTI PTCLDY    82  78  88 S8        29.98R
KINGSVILLE NAS CLEAR     80  79  96 S9        29.98S
COTULLA        CLEAR     82  72  71 SE12      29.97R
LAREDO         CLEAR     82  73  74 SE13      29.96S
BROWNSVILLE    CLEAR     81  75  82 S8        29.99S
PORT ISABEL    PTCLDY    83  77  82 S10       29.98S
HEBBRONVILLE   SUNNY     79  73  82 SE7       30.00S
MCALLEN        PTCLDY    84  75  74 SE12      29.98S
WESLACO        CLEAR     78  33  19 S10       29.97S
FALFURRIAS     MOSUNNY   79  74  85 SE5       29.97F
EDINBURG       SUNNY     82  75  78 SE8       29.98F
$$




USA.gov is the U.S. government's official web portal to all federal, state and local government web resources and services.